Location: Cussy
(47.0410°N, 4.6412°E)
Time: 14:10:34
(UTC+00:00)

Cosmos 1666 Rocket - Pass Details

Date: 30 November 2020
Orbit: 604 x 633 km, 82.5° (Epoch: 26 January)

Event Time Altitude Azimuth Distance (km) Brightness Sun altitude
Rises 17:20:05 0° 346° (NNW) 2,909 7.0 -14.1°
Reaches altitude 10° 17:22:20 10° 342° (NNW) 2,002 6.2 -14.5°
Maximum altitude 17:26:40 55° 266° (W) 759 4.4 -15.2°
Drops below altitude 10° 17:31:00 10° 189° (S) 2,002 6.5 -15.9°
Sets 17:33:15 0° 185° (S) 2,907 7.3 -16.2°
